loading
|

TITAN 3C TRANSTAGE DEB, 1829

Orbit data source: Space-Track

TITAN 3C TRANSTAGE DEB, 1829 is space debris in LEO originally from a launch on Fri, 15 Oct 1965 UTC launched from the Air Force Eastern Test Range (AFETR). Debris objects in space refer to the collection of defunct objects orbiting the Earth. Examples of debris include non-operational satellites, rocket bodies, and fragments generated from explosions, collisions, or faulty payload assembly.

Loading next visibility...
Loading greatness...
TITAN 3C TRANSTAGE DEB details
Identifier
1829, 1965-082DU
Orbit
LEO
Last TLE update2 days ago
Origin
Flag of USUSAF SSD (US)
ManufacturerUnknown
MissionSpacecraft
Bus & MotorUnknown bus, Unknown motor
MassUnknown
Launch date (UTC)
1965-10-15 (59 years ago)
Launch vehicleUnknown
Launch site
Air Force Eastern Test Range (AFETR)
Object type
Payload
Rocket body
Debris
Shape & HBRUnknown
Radar Cross SectionSmall (<0.1 m²)

Expand to show TLE details & history

TLE from 2 days ago
0 TITAN 3C TRANSTAGE DEB
1 01829U 65082DU  24276.89740277  .00014319  00000-0  16660-2 0  9995
2 01829  32.2896 151.7918 0027228  25.0705 335.1266 14.84066510127803
Epoch: 2024-10-02T21:32Z
Definitive object data (Epoch: 2024-10-02T21:32:15.599Z)
Latitude-0.00001°
Longitude176.63661°
Altitude597.905 km
Speed7.572 km/s
True Right ascension10h 07m 10s
True Declination0° 00' 00"
Sunlit
Object was in daylight at TLE epoch
Predictive object data (real-time)
Latitude-32.06367°
Longitude83.61458°
Altitude635.232 km
Speed7.536 km/s
Apparent Right ascension04h 28m 25s
Apparent Declination-35° 58' 53"
Sunlit
Object is in full shadow
Predictive observer data (real-time)
Local Sidereal Time17:08:58
Azimuth66.984° ENE
Elevation-81.097°
Doppler factor1
Orbital elements
Apogee639.179 km
Perigee601.07 km
Semi-major axis6,998.261 km
Eccentricity0.0027228
Inclination32.2896°
RAAN151.7918°
Arg. of periapsis25.0705°
True anomaly334.99496°
Mean anomaly335.1266°
Eccentric anomaly335.06082°
Mean motion3.7073 °/min
BSTAR0.001666
Period97.11 mins
No data available

TITAN 3C TRANSTAGE DEB Visibility forecast

Observer location: 39.9160978°, -105.1181434

TITAN 3C TRANSTAGE DEB is not visible in the next 10 days
Span
Click to sort rows by Start time (UTC) header in descending order
Start Az.
Max El. time (UTC)
Max El. Az.
Max El.
End time (UTC)
End Az.